Regional Weather Roundup
Issued by NWS

Home | Current Version | Previous Version | Graphics & Text | Print | Product List | Glossary On
Versions: 1 2 3 4 5 6 7 8 9 10 11 12 13 14 15 16 17 18 19 20 21 22 23 24 25 26 27 28 29 30 31 32 33 34 35 36 37 38 39 40 41 42 43 44 45 46 47 48 49 50
000
ASUS43 KTOP 290408
RWRKS

WEATHER ROUNDUP FOR KANSAS
NATIONAL WEATHER SERVICE GOODLAND KS
1100 PM CDT MON JUL 28 2014

NOTE:  "FAIR" INDICATES FEW OR NO CLOUDS BELOW 12,000 FEET WITH NO
SIGNIFICANT WEATHER AND/OR OBSTRUCTIONS TO VISIBILITY.

KSZ001>006-013>018-027>032-041>047-290500-
NORTHWEST KANSAS

CITY           SKY/WX    TMP DP  RH WIND       PRES   REMARKS
GOODLAND       CLOUDY    69  56  62 S9        30.26R
HAYS           MOCLDY    72  57  60 SE7       30.20R
HILL CITY      MOCLDY    76  58  53 E7        30.21R
RUSSELL        PTCLDY    69  57  65 E9        30.19R
$$

KSZ061>065-074>080-084>089-290500-
SOUTHWEST KANSAS

CITY           SKY/WX    TMP DP  RH WIND       PRES   REMARKS
DODGE CITY     PTCLDY    69  57  65 SW7       30.24R
ELKHART          N/A     66  62  87 S5          N/A
GARDEN CITY    MOCLDY    68  58  70 S7        30.25R
GREAT BEND     PTCLDY    72  63  73 E8        30.19R
LIBERAL        MOCLDY    70  54  56 S6        30.27S
PRATT          PTCLDY    72  59  64 CALM      30.22R
$$

KSZ066>073-081>083-090>101-290500-
SOUTHEAST KANSAS

CITY           SKY/WX    TMP DP  RH WIND       PRES   REMARKS
CHANUTE        CLEAR     72  57  59 NE7       30.17R
COFFEYVILLE    PTCLDY    71  60  68 NE6       30.14R
HUTCHINSON     PTCLDY    68  59  73 E7        30.18S
MEDICINE LODGE   N/A     71  63  75 N3        30.19R
NEWTON         CLEAR     72  52  49 NE6       30.22S
PARSONS        PTCLDY    70  58  65 CALM      30.17R
WICHITA INTL   PTCLDY    76  57  51 NE8       30.17R
WICHITA JABRA  PTCLDY    71  58  63 NE7       30.18R
WICHITA MCCONL PTCLDY    76  55  47 E6        30.18S
WINFIELD       PTCLDY    75  57  53 E3        30.17S
$$

KSZ007>012-019>026-033>040-048>060-102>105-290500-
NORTHEAST KANSAS

CITY           SKY/WX    TMP DP  RH WIND       PRES   REMARKS
CONCORDIA      PTCLDY    68  57  68 E5        30.20S
EMPORIA        CLEAR     69  56  62 NE7       30.18R
LAWRENCE       CLEAR     63  57  81 NW3       30.18S
MANHATTAN      CLEAR     68  58  70 CALM      30.19R
MARYSVILLE     CLEAR     63  55  77 NE5       30.20S
OLATHE IND     CLEAR     64  59  83 N7        30.18S
OLATHE EXE     CLEAR     70  59  68 N3        30.17S
SALINA         PTCLDY    76  54  46 NE10      30.18S
TOPEKA BILLARD CLEAR     68  57  68 CALM      30.18S
TOPEKA FORBES  CLEAR     68  57  68 NE3       30.18S
$$


USA.gov is the U.S. government's official web portal to all federal, state and local government web resources and services.